Wind_Gust
15 21 18 20 18 20 22 23 23 22 24 25 26 25 26 24 24 25 24 26 27 27 27 27 27 27 26 26 26 25 24 24 24 23 22 23 25 24 22 22 22 22 22 22 23 23 23 23 25 25 26 26 26 26 24 23 22 21 20 20 20 20 19 19 19 21 21 21 18 19 21 20 22 23 23 21 23 24 23 23 20 18 15 20 22
21 19 19 20 20 20 23 23 23 22 24 26 26 26 26 26 24 24 23 24 24 24 24 26 25 25 24 25 25 24 23 23 24 23 23 23 24 24 24 22 22 22 23 23 24 24 25 24 24 25 25 25 26 25 23 24 22 21 20 20 19 18 18 18 18 19 19 20 21 21 20 19 22 22 22 23 25 24 22 22 22 17 13 20 21
20 18 19 21 22 21 22 23 23 23 23 25 26 27 26 26 25 25 24 24 24 24 24 23 23 25 24 23 24 24 23 23 23 23 22 22 23 24 24 22 21 22 23 24 25 25 25 25 24 25 25 25 25 24 23 23 21 20 20 19 19 18 17 17 17 18 17 16 16 15 17 20 20 21 23 23 24 23 22 22 21 18 18 20 20
22 19 18 22 23 21 22 23 22 23 24 23 24 27 26 26 26 25 25 23 23 23 23 23 23 23 23 23 23 24 25 24 22 22 22 21 23 24 23 22 21 23 24 24 25 25 25 26 25 24 24 24 24 23 23 23 22 20 20 21 20 19 18 16 15 15 15 15 14 13 10 9 16 20 22 22 23 24 21 22 21 21 22 22 22
21 20 19 19 19 20 21 23 22 24 23 23 23 25 25 25 25 24 24 23 22 23 22 23 23 23 23 23 24 25 25 24 22 22 22 21 22 22 22 22 22 21 22 23 24 25 25 25 24 24 23 23 23 22 22 21 20 18 20 21 20 19 17 16 14 15 15 15 14 11 9 9 7 18 19 21 23 21 21 22 22 22 22 23 23
20 19 19 19 17 19 22 24 23 24 23 23 24 25 25 24 25 25 24 23 23 23 23 23 23 23 23 23 23 24 24 24 22 23 22 19 18 19 22 22 21 21 22 23 23 25 25 24 23 24 23 22 22 21 20 19 17 15 14 13 16 14 15 16 14 13 14 14 13 9 8 9 8 14 20 18 20 20 20 21 21 21 22 23 23
20 19 19 18 17 18 22 22 23 23 22 23 24 25 25 25 25 24 23 23 23 23 23 22 22 22 22 23 22 23 23 23 23 23 22 19 17 18 20 21 21 20 21 22 22 24 23 23 23 23 22 22 21 19 18 18 16 14 11 11 12 14 14 15 14 14 13 10 9 9 10 10 8 7 21 17 17 19 19 20 20 20 21 21 22
18 19 18 17 16 21 22 21 23 22 22 22 23 25 25 25 23 23 23 23 22 22 22 22 21 22 21 21 22 22 22 24 26 23 20 18 17 18 19 20 18 18 19 19 20 21 22 23 22 22 21 22 20 19 18 16 15 13 11 9 10 14 15 15 15 13 12 10 9 9 9 9 11 12 16 17 15 17 18 19 18 18 19 21 20
18 18 18 17 16 23 21 20 21 22 22 22 23 23 24 23 23 23 23 23 22 22 22 21 22 21 20 20 21 22 23 23 23 20 17 17 18 17 16 17 18 17 16 17 18 18 20 21 21 21 21 21 20 17 16 14 12 10 9 8 9 13 15 15 15 13 9 7 8 9 9 9 8 5 13 15 16 18 19 15 15 17 18 18 19
17 17 17 15 17 23 22 21 20 22 22 22 22 23 23 22 23 22 22 22 22 20 20 21 21 20 19 20 21 22 22 21 20 20 17 17 17 18 18 18 19 18 17 17 17 17 19 19 20 20 21 20 18 15 14 12 10 9 9 9 10 14 16 17 15 10 8 8 9 9 8 9 9 9 11 16 17 16 14 14 14 16 16 19 19
17 16 15 15 18 21 20 20 22 24 22 22 22 22 22 22 22 22 22 22 22 20 18 19 20 19 18 18 19 20 20 20 20 20 19 18 18 18 19 17 17 17 18 18 17 17 17 18 18 19 19 18 15 13 12 11 9 10 11 13 15 19 19 18 13 8 8 8 8 8 9 11 8 4 14 18 17 15 16 18 18 18 19 19 20
17 16 14 15 21 21 21 20 21 22 22 22 22 22 21 20 21 21 21 21 21 21 19 17 17 18 18 19 19 18 19 20 20 19 20 19 19 18 17 17 16 17 17 18 17 16 16 17 18 17 16 16 15 14 13 11 10 11 14 17 17 18 19 18 10 8 8 9 9 8 9 8 6 9 14 15 16 15 15 15 16 17 18 17 18
17 16 16 15 17 20 20 21 22 22 21 23 23 23 20 19 20 20 19 18 18 19 19 16 14 14 16 18 19 18 18 18 19 20 20 19 18 17 16 15 15 16 18 17 17 17 17 17 16 15 16 16 15 14 13 12 11 12 16 17 17 18 17 16 9 9 8 8 8 9 9 7 5 12 14 15 15 15 15 18 18 17 17 15 16
17 17 16 17 16 21 20 21 20 21 21 20 20 20 19 19 20 19 16 17 17 17 15 14 14 15 15 17 18 18 17 17 19 19 20 18 18 16 14 15 14 15 17 17 17 17 16 15 15 15 15 15 14 14 13 11 11 12 16 17 17 17 17 12 10 9 8 8 8 9 9 9 9 10 13 15 16 16 16 17 16 17 18 18 17
20 17 16 16 17 18 23 20 19 19 19 18 18 17 17 17 17 16 16 17 18 16 17 15 15 16 16 17 18 18 18 17 17 18 19 18 16 16 15 15 15 15 16 15 15 15 15 14 14 13 12 12 12 13 11 11 11 12 15 16 17 17 16 10 10 8 8 8 7 10 10 8 8 10 13 15 16 16 16 16 16 16 17 17 17
18 18 17 15 15 16 17 19 18 19 18 19 18 17 16 16 18 18 17 17 17 16 16 16 16 16 17 17 17 17 18 17 16 16 16 17 17 17 16 14 15 16 15 14 14 15 14 13 13 13 12 12 12 12 11 11 10 11 14 15 15 16 16 10 9 8 7 7 7 8 8 8 12 11 14 15 15 16 16 16 16 16 17 18 17
18 17 17 17 15 14 15 15 17 20 19 17 17 16 16 17 18 17 18 17 18 17 17 15 15 16 16 16 17 17 16 15 15 15 16 15 16 16 16 16 16 15 14 13 13 13 13 13 13 13 12 12 12 12 11 10 10 9 13 14 15 15 16 12 10 8 7 6 7 7 7 9 14 12 14 15 16 16 15 15 15 15 16 17 17
17 18 18 17 15 13 14 14 16 15 14 17 16 16 16 17 18 17 18 18 18 16 15 13 14 15 15 15 16 16 16 16 16 15 15 15 15 16 15 16 15 15 13 13 12 12 13 13 13 13 12 12 12 11 10 9 8 8 10 13 14 16 16 12 10 8 7 6 6 5 8 12 14 13 15 15 16 16 16 15 16 15 15 15 15
16 16 16 17 15 13 13 12 11 11 13 11 11 17 18 18 18 18 19 19 16 16 15 14 16 16 17 16 16 16 16 17 17 16 13 13 14 15 13 12 13 14 13 12 12 12 12 13 13 13 12 12 11 10 9 7 6 6 8 12 15 16 17 11 9 9 7 6 5 7 8 14 12 13 15 16 16 15 15 15 14 15 15 15 14
15 16 15 15 15 13 12 11 11 10 10 10 11 12 18 20 19 19 20 19 17 16 18 17 17 17 18 17 16 16 16 15 19 15 14 15 11 9 12 12 13 12 12 11 10 11 12 13 13 12 11 10 9 9 8 6 5 5 6 12 16 16 13 9 9 8 8 8 6 6 11 15 14 14 15 16 16 15 15 14 14 14 15 15 15
14 14 13 14 14 14 13 12 11 11 12 12 11 12 16 19 17 19 21 20 18 20 19 19 16 16 15 16 12 11 9 11 12 11 13 11 10 12 14 13 12 12 12 11 10 11 12 13 12 11 9 8 9 10 8 7 5 5 6 12 17 12 10 10 9 9 8 8 8 7 15 13 13 14 15 15 15 16 15 15 15 14 15 15 15
17 15 12 13 15 14 14 13 14 13 12 12 12 11 13 14 11 12 13 16 16 15 14 11 13 10 15 13 10 11 9 9 9 11 10 11 12 12 13 13 12 12 12 12 13 13 12 11 11 10 9 9 9 8 6 6 5 6 8 12 12 9 9 9 9 9 8 7 8 9 15 13 14 15 15 15 14 14 13 14 15 14 16 16 14
14 14 12 13 14 14 13 14 13 14 14 12 12 12 12 9 10 11 11 11 12 13 10 11 8 11 10 9 9 8 8 7 9 11 10 14 13 13 14 14 13 13 13 14 14 11 11 11 11 10 9 9 6 7 7 5 3 8 9 10 9 9 9 8 8 8 8 7 6 13 14 13 14 14 15 15 14 13 13 15 15 15 15 15 15
18 11 11 10 13 15 14 14 15 14 15 13 11 12 11 10 10 10 10 10 11 10 9 9 9 10 10 9 8 7 7 7 13 18 13 10 12 11 14 14 15 14 14 10 10 10 10 10 11 10 8 7 6 6 8 6 6 8 8 9 9 9 9 8 8 7 7 7 6 13 14 13 13 13 14 14 13 12 13 13 13 14 14 15 15
11 8 10 10 12 15 15 15 16 16 15 14 13 12 11 11 11 11 11 11 10 10 9 9 9 10 10 10 9 7 7 7 9 9 8 10 10 9 10 9 9 8 8 7 6 7 7 7 8 8 8 6 7 7 7 7 5 7 9 9 8 8 8 7 7 7 7 6 6 13 11 12 13 13 14 14 13 13 13 12 12 12 13 13 15
7 8 8 10 14 16 16 16 16 15 15 15 15 15 14 11 10 11 11 10 10 10 10 10 10 10 9 10 9 9 8 9 8 9 9 10 10 9 9 8 9 7 4 6 5 6 7 7 7 9 7 7 7 6 5 6 8 7 9 9 8 8 8 8 7 7 7 6 6 12 9 10 10 14 14 15 14 14 14 12 12 13 11 12 14
7 7 10 13 16 16 14 15 16 16 15 13 12 13 12 12 11 12 13 10 10 12 10 9 10 10 9 10 11 9 9 7 9 10 10 9 10 9 7 7 8 7 3 8 7 5 7 7 8 7 7 7 7 7 6 6 5 9 8 9 8 8 8 9 8 7 7 7 5 12 9 8 7 11 12 14 13 13 13 13 12 12 11 11 12
15 10 9 13 14 14 14 15 16 16 15 13 12 12 12 14 15 16 12 15 13 11 10 10 10 10 9 9 10 10 11 9 8 10 10 8 9 8 7 7 6 6 3 5 8 6 8 7 8 8 7 7 7 6 7 7 7 6 9 9 9 9 9 9 9 8 7 7 6 10 8 7 7 9 12 12 13 13 12 12 12 12 12 11 11
14 13 14 14 14 15 13 11 10 11 10 12 12 12 11 12 13 13 11 15 10 10 10 9 10 9 8 10 11 11 8 9 9 9 10 10 8 7 7 7 6 6 5 6 4 6 9 8 8 8 7 7 6 6 6 8 7 6 8 9 10 10 9 9 8 8 7 7 7 8 8 5 7 9 10 9 11 13 12 11 11 11 12 12 11
16 16 16 16 14 15 15 14 14 14 14 12 10 11 11 13 14 14 12 15 8 10 9 9 8 9 8 8 8 9 9 9 9 7 10 10 8 7 7 7 7 6 7 5 3 7 9 8 9 7 7 7 7 6 5 8 8 7 7 9 10 10 9 10 9 9 7 7 7 7 7 5 7 7 8 7 10 12 14 12 11 11 12 12 12
14 17 20 20 18 17 16 17 16 14 12 12 12 11 10 11 15 12 11 12 10 11 10 8 8 8 8 9 8 8 8 7 8 8 8 9 8 8 7 7 7 6 6 7 5 8 8 9 7 6 6 6 7 6 6 7 7 7 6 8 8 9 9 9 9 8 8 8 7 7 7 7 6 8 7 7 5 8 12 13 13 13 12 12 13
28 27 29 23 18 19 20 19 16 15 15 13 12 12 12 14 14 11 12 11 11 10 10 9 8 7 7 9 8 8 7 7 7 7 9 8 7 7 8 8 7 6 7 7 7 7 7 9 8 7 7 6 7 7 7 7 8 8 7 7 6 7 8 8 8 8 7 7 7 6 7 8 7 7 9 8 7 3 12 12 13 14 13 12 13
45 44 32 20 18 16 15 14 13 12 13 14 13 12 13 15 14 12 13 13 10 10 9 9 6 6 7 7 7 7 6 8 6 7 8 7 7 7 6 7 7 7 7 8 9 7 7 7 9 8 7 7 7 8 8 9 10 9 9 9 8 8 7 7 6 7 7 7 7 8 9 9 7 6 9 10 7 3 9 13 12 12 12 13 13
10 13 12 12 11 11 12 10 10 10 10 11 11 13 13 14 14 13 14 11 10 11 8 6 6 6 7 7 8 6 7 7 8 7 7 7 7 7 6 7 7 7 7 7 8 6 7 8 7 8 8 7 7 8 9 10 9 10 10 9 10 8 8 8 7 7 8 8 8 11 10 8 7 6 9 9 7 7 11 9 9 11 12 12 13
7 8 10 11 13 12 12 10 10 10 11 8 10 12 12 16 15 14 12 11 11 10 9 7 7 8 7 8 7 7 7 7 6 8 7 8 7 7 6 6 7 6 6 7 9 7 7 7 6 7 7 7 8 11 10 9 10 12 11 12 12 11 10 8 8 8 9 9 12 12 12 8 7 7 8 8 6 6 8 8 12 10 9 10 11
7 7 9 11 12 11 10 10 11 12 9 10 9 12 13 13 13 13 13 11 11 10 9 10 8 7 7 7 6 7 6 7 7 7 8 7 8 7 7 7 8 7 8 7 8 9 7 7 7 6 9 6 10 11 11 12 12 13 12 13 12 11 11 9 9 9 9 12 11 9 7 10 7 6 8 8 6 6 8 7 9 11 10 10 12
6 11 10 11 12 11 11 11 12 12 10 10 11 11 13 14 12 12 12 12 11 10 9 9 7 7 7 7 6 7 7 6 6 6 8 7 7 7 7 8 8 7 8 7 7 7 8 9 7 6 6 8 11 12 12 13 14 14 13 12 11 10 11 9 8 8 10 11 9 6 8 6 7 10 8 8 7 6 9 11 10 10 7 6 9
6 8 8 11 13 13 10 10 11 11 11 12 12 12 12 12 11 12 12 11 10 8 9 11 8 7 7 7 6 7 7 7 7 7 7 7 7 8 8 9 9 10 10 8 7 6 7 7 8 6 6 8 10 13 14 15 12 13 12 13 12 12 10 9 8 9 9 9 7 9 9 8 6 7 8 7 8 8 10 13 15 13 14 11 10
8 9 7 9 11 11 11 12 13 13 12 12 13 13 13 12 12 11 11 9 9 7 8 9 7 7 7 7 6 7 7 7 8 8 9 8 8 8 8 9 9 9 10 8 7 7 7 7 9 9 8 8 11 12 14 12 14 13 14 13 12 12 10 10 9 9 8 8 12 12 10 9 11 9 8 7 7 8 10 10 12 13 15 14 13
9 11 8 10 12 11 10 11 12 13 13 12 12 13 13 14 13 12 10 10 9 10 7 8 7 7 6 7 7 7 7 7 7 7 8 8 8 8 8 7 7 8 8 8 7 7 8 9 10 12 13 11 11 12 12 14 15 15 15 14 13 11 12 10 10 10 9 11 11 11 10 9 11 9 8 9 8 8 9 12 14 13 13 15 16
9 11 10 11 12 13 13 11 13 13 13 12 12 14 13 13 12 11 10 8 10 8 8 7 7 6 6 7 6 7 6 6 5 6 7 8 7 7 8 6 6 7 7 6 6 7 7 8 9 8 11 11 8 9 9 9 15 14 12 13 14 13 14 12 12 10 10 11 10 10 9 11 8 10 8 9 10 12 10 10 9 12 12 12 12
10 12 12 11 10 11 12 12 13 12 12 11 12 12 10 13 13 11 9 8 9 10 8 7 8 7 6 7 6 6 6 5 6 5 6 7 8 8 7 8 7 7 6 5 4 6 6 7 9 10 5 9 9 9 9 6 7 10 12 9 12 11 12 12 12 11 10 10 9 9 9 10 9 9 9 11 11 13 10 10 10 12 11 11 10
7 11 10 11 10 10 11 11 12 12 11 12 12 12 9 10 10 11 11 10 5 5 6 5 6 7 6 6 6 6 6 5 6 6 7 6 8 8 8 7 6 7 7 6 5 6 7 7 6 11 10 5 6 5 6 4 10 8 7 10 6 7 8 11 10 11 10 8 7 9 9 11 10 10 9 10 10 10 12 12 12 12 12 11 10
9 9 10 12 11 11 9 11 13 12 12 11 12 11 10 8 7 9 7 7 9 8 6 6 7 8 6 5 4 6 5 6 5 6 5 6 8 8 7 7 7 7 9 8 7 7 7 6 7 8 10 10 9 9 6 5 9 16 8 5 6 6 10 8 8 8 8 10 9 10 9 9 11 10 9 11 11 9 10 13 13 12 11 11 11
10 10 11 12 12 12 10 12 13 12 11 13 14 13 12 11 12 10 10 12 9 8 9 6 6 6 8 6 6 5 6 6 5 5 6 7 5 7 7 7 7 6 7 8 8 9 9 8 8 8 8 11 10 10 8 6 8 4 12 13 8 6 6 8 9 8 7 8 10 11 12 11 12 11 12 12 12 13 12 13 13 13 12 11 10
10 7 10 11 12 12 11 12 13 12 13 14 15 14 14 15 14 12 10 8 11 11 10 11 9 8 8 3 5 5 6 5 5 5 6 6 6 6 6 8 7 7 7 8 7 8 8 9 10 9 8 4 10 8 11 4 5 6 3 3 8 7 16 12 5 8 7 9 9 12 13 13 10 8 10 11 14 14 13 14 15 13 11 11 13
9 5 10 13 13 12 12 13 14 14 15 14 13 14 13 12 14 15 11 11 12 5 3 5 9 6 8 6 5 4 4 7 3 4 5 5 6 6 7 7 7 7 5 7 8 8 10 10 7 8 10 9 7 10 9 8 6 5 6 5 4 4 13 16 8 10 9 6 9 11 12 11 11 13 13 13 13 14 13 12 12 10 10 10 9
8 6 10 17 15 14 14 14 14 14 14 14 14 14 15 13 13 11 11 10 9 10 8 7 7 8 9 7 7 5 4 3 6 4 4 5 6 6 5 6 6 5 5 6 7 6 6 4 6 7 8 10 10 11 9 7 13 11 6 6 9 10 7 6 8 10 13 12 11 13 12 14 15 15 14 13 12 11 10 9 10 10 9 10 7
8 8 12 16 17 16 15 13 13 14 14 17 16 12 11 13 13 14 11 7 9 9 8 8 9 9 10 6 7 5 5 5 3 5 5 5 5 6 6 6 6 5 5 7 6 7 8 9 8 7 9 9 10 7 9 10 8 9 10 8 9 9 9 9 9 9 14 14 10 9 12 12 14 13 12 12 11 10 10 9 11 10 10 11 9
6 10 12 15 16 16 15 12 13 13 15 14 13 10 9 13 14 12 13 11 11 9 8 9 8 7 10 6 6 7 6 7 5 4 5 5 7 6 7 6 6 6 5 7 7 7 5 7 8 9 8 8 7 9 10 9 8 7 8 11 9 8 10 10 9 14 14 7 15 12 12 12 11 10 10 11 10 9 9 9 9 10 10 9 8
8 14 12 16 14 13 14 13 11 11 11 12 14 14 10 11 13 14 15 14 12 13 12 9 9 8 10 6 7 7 6 6 4 5 4 5 7 6 7 6 5 6 7 7 6 7 5 6 5 5 6 8 7 9 8 7 8 8 8 10 12 14 13 11 15 11 13 15 15 13 15 13 13 10 9 7 9 9 9 8 9 9 8 8 8
Wind_Speed
10 14 11 16 15 16 18 19 18 18 19 19 20 20 21 20 21 20 20 21 21 21 20 20 22 22 21 21 21 21 19 19 19 19 18 18 19 18 17 16 17 17 17 18 19 18 18 18 20 20 20 19 20 20 18 18 17 17 16 16 16 15 15 15 15 17 17 14 13 15 15 15 16 16 15 16 18 18 17 17 15 10 8 13 16
14 12 11 13 17 16 19 19 18 18 19 20 20 19 19 18 18 19 19 18 18 18 20 21 21 21 20 20 20 20 19 19 19 19 18 18 19 18 18 17 17 18 18 18 19 19 19 19 19 20 19 20 20 18 18 19 17 16 16 15 14 14 14 13 14 13 14 15 16 15 14 15 17 15 16 17 18 18 17 17 14 9 7 14 16
12 12 11 14 18 17 18 19 19 19 19 20 21 21 20 20 19 18 20 19 19 18 18 18 19 20 19 19 19 20 19 19 19 18 18 18 19 18 17 17 17 18 19 19 20 19 20 19 19 19 19 19 19 18 18 17 16 16 16 15 15 14 13 13 13 12 12 12 11 12 14 16 16 16 16 17 18 17 17 16 15 13 9 15 15
14 11 11 15 19 18 18 19 18 18 19 18 20 22 21 21 21 19 18 18 19 19 18 18 18 19 19 18 19 19 21 19 18 18 18 18 19 19 17 16 17 19 19 19 20 20 20 20 20 19 19 18 18 17 18 17 16 16 16 17 15 14 13 12 11 11 11 10 10 9 5 5 10 16 17 16 17 17 17 17 17 16 16 17 18
13 12 11 11 13 16 18 19 18 18 18 19 19 20 21 21 20 19 19 18 17 18 18 18 18 18 19 18 19 20 20 20 18 18 18 17 18 18 17 17 16 17 18 19 19 20 20 19 19 19 18 17 17 17 16 16 15 15 16 17 15 14 13 12 11 11 10 10 11 7 5 5 4 13 14 16 17 16 17 17 17 17 17 19 18
12 11 11 11 11 13 18 19 18 19 18 19 19 20 21 20 20 20 19 19 18 17 18 18 18 18 18 19 19 19 20 19 18 19 18 16 15 16 17 17 16 17 17 18 19 19 19 18 18 18 18 17 16 16 15 14 13 12 11 11 13 11 12 12 11 10 10 10 10 5 5 5 4 7 14 14 16 15 16 16 17 16 17 18 18
13 10 11 11 10 12 18 18 19 18 18 19 19 20 20 20 20 19 19 18 18 18 18 18 18 18 18 19 18 19 19 19 19 19 18 15 14 15 17 17 17 16 17 17 18 19 18 18 18 17 17 16 16 15 13 13 12 11 9 9 10 11 11 12 11 11 10 6 5 5 5 6 5 4 14 12 13 15 15 16 15 16 16 16 16
11 10 10 10 9 15 18 18 19 18 18 18 19 20 20 20 19 19 18 18 17 18 18 18 17 17 17 17 18 18 18 20 21 19 16 15 15 15 15 16 15 15 15 15 16 16 17 17 17 17 16 16 15 14 12 11 11 9 8 7 8 12 12 12 11 10 9 5 5 5 5 5 7 6 12 11 12 13 14 14 14 14 15 16 15
10 11 11 10 10 19 18 17 17 18 18 18 18 19 19 19 19 19 19 18 18 17 18 17 18 17 16 16 17 18 18 18 19 17 14 14 15 14 14 14 15 14 13 14 14 14 15 16 16 16 16 16 15 13 11 9 8 7 7 6 7 11 12 12 11 9 5 4 5 5 6 6 5 3 9 10 12 14 14 11 11 13 14 14 14
10 10 10 9 10 19 18 17 16 18 18 18 18 19 19 18 18 18 18 18 18 16 16 17 17 16 15 16 17 18 18 17 17 16 14 13 13 15 15 15 15 14 14 14 14 14 14 14 15 15 15 15 14 12 9 7 6 6 6 7 8 12 13 12 11 7 5 5 5 6 5 6 5 5 8 12 11 11 10 11 11 12 12 14 15
11 10 9 9 12 17 17 17 17 19 18 18 18 18 18 18 18 17 17 18 18 16 15 15 16 15 15 15 16 16 16 17 16 16 15 15 15 15 15 14 14 14 15 14 14 13 13 14 14 14 14 13 12 10 8 7 7 8 8 10 12 15 14 13 9 4 5 5 5 5 6 8 5 2 11 12 11 11 13 14 14 14 15 15 15
10 10 9 9 16 17 17 17 17 17 17 18 18 18 17 17 18 17 17 17 17 16 14 13 13 13 14 14 14 15 16 16 16 16 16 15 15 14 14 14 13 14 14 14 14 13 13 13 13 13 13 12 11 10 8 7 8 9 11 12 14 14 15 13 6 4 5 5 6 5 5 5 4 5 11 11 11 10 12 12 12 13 14 13 14
10 9 9 9 11 16 17 17 17 17 17 19 18 17 16 16 16 16 15 15 14 14 15 13 12 12 13 14 14 14 15 15 15 16 16 15 15 14 12 13 12 13 14 14 14 14 13 13 13 12 12 12 11 10 8 8 9 10 13 13 13 14 13 12 6 5 5 5 5 6 6 5 3 10 10 11 11 10 11 14 12 12 12 11 13
10 9 9 10 9 16 16 17 16 16 17 16 16 15 16 16 16 15 13 14 14 14 12 11 10 11 11 13 14 14 14 14 15 16 16 15 14 13 12 12 11 13 14 14 14 14 13 12 12 12 11 11 10 9 9 8 9 11 13 14 14 14 13 9 6 5 5 5 5 6 6 5 5 9 10 11 12 12 12 13 13 13 13 12 12
11 10 10 9 10 10 18 16 15 15 15 15 15 14 14 14 14 14 13 13 14 13 13 12 13 13 13 14 14 14 14 14 14 15 15 14 13 13 12 12 12 12 13 12 12 13 12 11 11 11 10 10 9 9 8 8 9 10 12 13 13 13 12 6 4 4 4 3 4 6 6 5 7 9 10 11 12 12 12 12 12 12 12 12 13
12 11 10 9 9 10 10 14 14 14 14 15 14 14 13 13 15 14 14 14 14 13 13 13 13 14 14 14 14 14 15 14 13 13 13 14 14 14 13 11 12 13 12 12 11 12 11 11 10 10 10 10 9 8 8 8 8 9 12 11 12 12 12 7 5 5 4 3 4 5 5 5 10 9 11 11 11 12 12 12 12 12 13 13 13
11 11 10 10 9 8 8 8 11 16 14 13 13 13 13 14 15 15 14 14 15 14 13 12 12 13 13 13 14 14 13 13 12 12 12 12 12 13 13 13 13 12 11 11 11 10 11 11 11 10 10 10 9 8 7 8 8 7 11 11 12 12 12 9 6 5 3 3 3 4 4 5 11 10 10 11 12 12 12 11 11 11 12 13 13
10 10 10 9 8 7 7 7 9 8 8 11 12 13 13 14 15 14 15 14 14 13 12 11 11 12 12 12 13 13 13 13 13 12 12 12 12 13 12 13 12 11 10 11 10 10 10 10 10 10 10 10 9 8 7 6 7 6 9 11 12 13 12 9 6 5 4 3 2 2 4 9 12 11 12 12 12 12 12 12 11 11 11 11 11
9 9 9 9 8 7 7 6 7 6 7 6 6 11 15 15 15 14 15 14 12 13 12 11 12 12 13 12 12 13 12 13 14 13 10 11 11 12 11 10 11 10 10 10 10 10 9 11 10 10 9 9 8 7 6 5 5 5 6 10 12 13 13 7 5 5 4 3 2 3 4 11 9 10 11 12 11 11 12 11 11 11 11 11 11
8 8 8 7 7 7 6 6 6 6 6 6 7 7 14 16 15 16 16 14 13 13 14 13 13 13 14 13 12 10 12 10 15 10 11 11 9 7 10 10 10 9 8 8 8 9 10 10 10 9 8 7 7 7 5 4 4 3 4 10 12 13 7 5 6 5 4 4 3 3 7 11 11 11 11 12 11 11 12 11 11 11 12 11 12
7 7 7 7 8 8 8 6 7 8 8 8 7 7 10 15 13 15 17 16 13 16 15 16 13 13 11 12 10 7 6 7 7 6 10 7 8 9 12 11 10 9 8 7 7 9 10 10 10 8 7 7 7 7 5 4 4 3 4 10 12 6 6 6 5 4 4 4 4 3 10 9 10 11 10 10 11 11 10 11 11 11 11 12 11
9 9 7 8 8 8 9 8 7 8 8 6 6 6 7 10 7 8 7 10 12 11 10 8 9 7 12 9 6 6 6 6 5 7 6 7 8 10 11 11 10 9 9 8 9 9 9 9 8 8 7 7 6 5 3 3 4 5 5 10 6 5 5 5 5 5 4 4 4 5 10 9 10 10 10 9 9 9 9 10 9 10 12 12 11
9 8 7 8 7 8 8 9 8 9 9 7 6 6 7 5 6 7 6 9 8 8 6 7 5 7 7 6 6 5 5 5 5 6 6 11 9 10 11 11 10 11 10 10 9 8 8 8 8 7 7 6 4 4 4 3 3 6 6 6 5 5 5 5 5 4 4 3 3 8 9 9 10 10 10 10 9 9 9 9 9 9 10 11 11
10 6 6 5 7 7 8 8 9 9 9 7 6 6 6 6 6 6 5 6 6 6 6 6 6 6 7 6 5 5 5 5 10 14 10 6 7 9 12 11 12 11 10 5 7 7 7 7 8 7 5 3 4 4 4 4 4 4 5 5 5 5 5 5 4 4 4 3 1 8 8 8 8 9 10 9 9 8 9 9 9 9 9 10 10
6 4 4 5 7 7 8 9 10 9 10 7 7 7 6 6 6 6 6 6 6 5 5 6 6 6 6 6 6 5 5 4 5 5 5 5 6 6 5 5 5 5 5 3 3 4 4 4 4 5 5 4 4 4 4 4 3 4 5 5 5 5 4 4 4 4 3 3 2 8 8 8 8 9 10 10 9 9 9 9 9 9 8 9 9
4 4 5 6 8 8 9 8 9 9 9 8 8 8 7 8 6 7 7 6 6 6 6 6 6 6 6 6 6 6 5 5 5 5 5 5 6 5 5 4 5 4 2 2 2 3 2 3 4 5 4 4 4 4 3 3 4 4 5 5 5 4 4 4 4 3 3 3 3 9 7 8 7 8 8 9 8 7 8 8 9 9 8 9 8
4 4 6 6 8 8 7 8 9 9 9 7 6 6 6 6 6 7 8 6 6 7 6 5 6 6 6 6 6 5 5 4 5 5 5 5 6 5 4 4 4 4 2 2 4 2 1 3 4 4 3 4 4 4 4 4 3 5 5 5 5 5 5 4 4 4 4 4 3 9 7 6 5 7 9 10 9 8 7 8 8 8 8 8 8
7 6 5 6 6 8 7 6 6 7 7 6 6 6 6 8 8 9 7 8 7 6 6 5 6 6 6 6 6 5 6 5 5 5 5 5 5 5 4 4 3 3 2 1 4 1 0 3 4 4 4 4 4 4 4 4 4 4 6 5 5 5 5 5 5 5 4 4 3 7 6 4 6 7 9 9 9 9 7 7 8 8 8 8 8
7 7 6 7 7 8 7 7 6 7 6 6 6 5 5 6 6 7 7 9 6 6 5 5 5 5 4 6 6 6 5 5 5 5 4 5 4 4 4 4 3 3 3 3 2 2 1 4 4 4 4 4 4 4 4 4 4 4 5 5 5 6 5 5 5 5 4 4 4 5 6 3 6 7 8 7 8 9 9 8 7 8 8 9 8
7 7 8 8 7 9 10 9 8 7 7 6 5 6 6 7 7 7 7 8 5 6 6 5 4 4 4 5 5 5 5 5 5 4 5 5 5 4 4 4 4 3 4 3 1 2 2 4 4 4 4 4 4 3 3 4 4 4 4 5 5 5 5 5 5 5 4 4 4 4 6 4 6 6 6 6 7 9 10 9 8 8 9 9 9
6 9 11 11 10 10 10 10 9 8 7 7 7 6 6 6 8 6 6 7 6 6 5 4 4 5 4 6 5 5 5 4 5 5 4 5 5 4 4 4 4 3 3 3 2 2 3 4 4 3 3 3 4 3 3 4 4 4 4 4 5 5 5 4 4 5 5 4 4 4 4 6 5 7 6 6 4 7 9 10 10 10 9 9 9
18 15 14 12 10 10 8 9 8 7 8 7 7 7 6 8 8 6 7 6 7 6 6 5 4 4 4 5 5 5 4 4 5 5 5 5 4 4 4 4 4 3 3 4 3 2 3 4 4 3 4 3 4 4 3 4 4 4 4 4 3 3 3 4 4 4 3 3 4 3 4 5 6 6 8 7 5 2 9 9 9 10 10 9 10
18 25 20 13 10 8 8 7 6 6 6 7 6 6 6 8 7 7 7 7 6 6 5 6 4 4 4 5 4 4 4 5 4 5 5 4 4 4 3 4 3 3 4 4 4 3 4 4 4 4 4 4 4 4 4 5 5 5 5 5 4 4 3 3 3 3 3 3 3 4 5 5 4 5 8 8 5 3 7 9 9 9 9 10 10
4 8 7 8 6 6 6 5 6 6 5 5 5 5 7 8 6 7 8 6 6 6 5 4 4 4 4 5 5 4 4 4 5 4 4 4 4 4 3 3 3 3 3 3 4 3 4 4 3 4 4 4 4 4 5 6 5 5 5 5 5 4 4 4 3 3 4 4 4 6 4 2 2 3 5 8 5 6 9 7 6 8 9 9 10
4 4 6 7 8 7 6 5 6 7 7 6 6 6 8 8 7 7 6 6 6 5 5 4 4 4 4 4 5 4 4 4 4 5 5 5 4 4 3 3 3 3 3 3 4 3 4 4 3 3 3 3 4 6 6 5 6 7 6 6 6 6 5 4 4 4 5 5 6 2 3 2 4 4 4 4 4 5 7 7 10 7 7 7 8
4 4 6 7 8 7 6 6 7 7 6 6 6 6 7 7 7 7 6 6 6 6 5 4 4 4 4 4 4 4 4 4 4 4 5 4 4 4 3 4 5 4 4 4 4 4 3 4 3 2 4 3 5 5 6 7 6 7 7 7 7 6 5 4 4 4 5 6 3 4 3 5 3 3 4 4 3 3 6 7 8 9 7 7 9
3 6 6 7 8 8 7 7 7 7 6 6 7 7 7 7 7 7 7 7 6 6 5 5 4 4 4 4 4 4 5 4 4 4 5 4 4 4 3 5 4 4 4 4 3 3 4 4 3 3 2 4 6 7 6 7 7 7 7 7 6 5 5 4 4 4 5 6 3 2 4 3 4 5 4 4 3 3 8 10 9 8 4 1 7
4 5 5 7 8 8 6 7 7 7 6 7 7 7 7 7 6 6 7 6 6 5 6 6 4 4 4 4 4 4 4 5 4 4 5 4 4 5 4 5 5 5 5 4 3 3 3 4 4 3 2 4 5 7 7 7 6 6 6 6 6 6 5 5 4 4 4 5 3 4 5 2 3 3 4 3 4 4 5 9 12 11 11 9 7
5 6 4 6 7 7 6 8 8 8 7 7 8 8 8 7 6 6 7 6 5 4 5 5 4 4 4 4 4 4 4 5 5 5 5 5 5 4 5 5 5 6 5 5 4 3 3 3 5 4 4 4 6 7 7 6 7 6 7 7 7 7 5 5 4 5 4 4 6 6 2 2 5 4 4 3 3 4 6 5 6 6 7 10 9
6 6 5 7 7 7 6 6 7 7 7 7 7 7 7 8 8 7 6 5 5 5 4 5 4 4 4 4 4 4 4 5 5 5 5 5 5 4 5 4 4 5 5 4 3 3 4 5 6 7 7 6 6 6 7 8 8 8 8 8 7 7 7 5 5 5 5 6 5 4 4 4 5 4 3 3 4 4 5 7 7 7 7 9 10
6 7 6 7 8 7 8 8 8 8 7 7 6 7 8 7 6 6 6 5 5 5 5 4 4 4 4 4 4 4 4 4 4 4 5 4 4 4 5 4 4 4 4 3 3 3 3 5 5 5 7 7 4 5 5 6 8 7 7 8 8 8 8 7 7 5 5 6 5 5 4 5 4 3 2 3 5 6 5 4 3 6 6 6 7
6 8 7 6 7 7 7 7 7 7 7 6 6 6 5 6 6 5 4 4 5 5 5 4 4 4 4 4 4 4 4 4 3 3 4 5 5 4 5 4 4 4 4 3 3 4 4 5 5 5 2 5 4 6 5 3 4 4 6 4 6 6 7 7 7 6 5 5 5 5 5 5 4 3 4 5 6 6 5 4 5 6 6 5 5
5 7 6 6 6 7 7 7 7 7 6 7 7 6 5 5 5 5 6 4 2 2 3 3 4 4 4 4 4 4 4 4 4 4 4 4 5 5 5 4 4 4 4 4 4 4 4 5 5 6 5 2 3 3 3 1 4 4 4 5 2 3 4 6 6 6 5 4 4 5 5 5 5 5 4 2 4 5 6 5 6 6 6 6 5
4 6 6 7 5 6 6 7 8 7 6 7 7 7 6 4 4 6 4 3 5 4 3 3 3 4 4 3 3 4 4 4 4 4 3 4 5 5 4 4 5 4 5 5 4 4 4 4 5 5 6 6 3 4 3 2 4 8 3 1 1 3 4 4 4 4 5 6 5 6 5 5 6 6 5 6 6 5 5 7 7 6 5 5 5
5 5 5 7 5 7 6 8 8 7 6 8 9 8 7 6 6 6 6 7 5 5 5 4 4 3 4 3 3 3 3 4 3 4 4 5 4 4 5 4 4 4 4 5 4 5 5 5 5 5 6 6 6 4 4 2 5 2 5 5 4 2 2 3 4 4 4 4 6 6 6 7 7 6 6 6 6 6 6 7 7 7 6 6 6
4 3 5 5 7 7 7 8 8 7 8 9 10 8 8 9 8 7 6 4 5 5 5 6 5 5 4 2 3 3 4 3 3 3 4 4 4 4 4 5 5 4 4 5 4 5 5 5 5 6 5 3 5 5 5 0 3 2 0 1 2 2 7 6 2 3 4 5 5 7 8 8 5 4 6 6 8 7 6 7 7 6 6 6 7
4 2 6 7 9 8 8 9 8 8 9 9 9 8 8 7 9 9 7 6 6 1 2 2 5 4 4 4 3 3 2 4 2 3 4 3 4 4 5 4 4 4 3 5 5 5 6 6 4 5 6 5 5 5 6 4 3 2 1 2 1 2 7 7 3 4 4 3 5 6 7 6 6 7 7 7 7 6 5 6 6 5 5 4 5
4 3 5 10 10 9 9 9 8 8 7 8 8 7 8 7 8 7 7 6 6 5 5 4 4 5 6 4 4 3 2 2 4 3 3 3 4 4 4 4 4 4 3 4 4 4 4 3 4 5 5 6 6 6 5 4 6 4 2 3 5 6 4 3 6 5 6 5 5 7 7 8 9 8 7 6 6 5 5 4 4 5 4 4 3
5 5 5 10 10 10 9 8 8 9 8 10 8 6 7 7 7 8 7 4 6 5 4 4 5 5 6 4 5 3 3 3 2 3 3 3 3 4 4 4 4 3 3 4 4 4 6 6 5 5 6 5 6 4 5 5 5 4 5 4 5 4 5 5 5 5 5 6 6 5 6 6 8 7 5 5 5 4 5 4 5 5 5 5 4
4 4 6 9 10 9 8 8 9 8 9 8 7 7 6 8 8 7 9 7 6 5 5 5 5 5 6 4 4 4 4 4 3 3 3 3 5 4 5 4 5 4 3 5 5 5 4 5 5 6 5 6 5 5 6 5 4 4 4 6 5 4 5 5 5 7 6 4 7 6 6 6 5 4 4 5 5 5 4 4 5 5 4 4 3
4 7 6 9 7 7 9 9 7 7 8 7 8 8 6 7 7 9 10 9 8 8 7 5 5 5 6 4 5 4 4 4 3 3 3 4 5 4 5 4 3 3 4 5 4 4 4 4 3 3 5 6 5 6 5 5 4 4 4 6 7 7 6 5 8 6 7 7 7 7 7 6 6 5 4 3 4 4 4 4 4 4 4 4 3
Wind_Direction
145 133 133 128 130 129 128 127 127 128 128 126 123 122 121 119 116 116 114 116 116 115 114 114 118 119 120 121 122 123 124 123 123 124 124 124 121 119 118 118 116 116 115 114 112 110 111 108 108 107 104 102 99 99 99 94 90 91 89 84 82 82 81 86 87 93 102 102 99 83 80 78 80 80 77 76 80 81 81 80 77 74 75 77 79
143 134 131 130 131 130 130 130 130 131 130 127 124 121 119 116 114 112 111 110 108 110 115 118 118 120 119 122 122 122 122 122 123 124 124 122 122 121 120 121 123 122 121 118 115 110 106 108 112 109 105 105 106 104 101 98 96 97 95 90 84 83 87 83 88 93 97 89 64 74 84 80 76 84 87 84 84 81 83 80 75 73 72 80 78
128 131 131 132 133 132 132 132 132 133 130 127 125 123 122 121 118 116 117 116 114 113 112 114 117 119 120 122 122 123 121 121 124 126 126 124 122 119 120 123 125 124 123 119 114 112 117 116 112 109 110 110 108 108 106 104 102 102 100 96 90 86 82 86 85 79 59 57 63 55 77 79 85 79 79 81 78 81 79 77 76 74 78 78 78
131 131 129 133 132 132 135 133 134 134 131 128 126 124 122 121 119 117 114 114 116 118 118 118 120 121 123 123 124 123 123 125 127 127 125 126 122 119 121 120 122 122 121 119 119 118 118 117 116 115 113 112 113 110 108 107 107 104 103 98 94 89 89 90 84 68 62 62 61 60 49 53 81 83 84 82 85 81 82 83 83 84 81 77 74
129 131 130 129 131 135 133 135 136 134 132 129 125 122 120 120 117 117 118 118 117 117 119 121 121 123 125 126 125 124 127 129 130 129 127 122 121 123 122 120 118 119 120 119 118 122 121 119 117 116 113 113 114 115 114 112 113 111 109 99 87 92 92 89 81 69 61 57 53 51 43 38 39 80 79 82 81 81 81 81 81 77 74 73 71
132 130 128 129 130 134 135 136 137 135 132 128 123 120 119 118 118 118 120 121 121 121 122 123 124 126 128 129 128 129 133 137 138 132 126 122 121 121 119 117 120 122 121 120 123 124 122 118 117 114 113 115 114 114 115 115 114 112 114 98 87 91 101 98 89 76 64 53 46 31 43 41 40 79 82 83 85 84 82 79 75 73 71 69 68
129 128 126 129 131 136 137 138 138 135 132 127 122 120 120 120 120 120 123 125 126 127 127 127 128 129 132 134 135 137 138 139 134 126 120 119 120 120 122 121 121 121 121 121 123 124 122 119 116 114 116 115 112 113 117 116 116 117 117 110 101 100 107 104 98 86 65 46 34 30 29 32 40 61 86 83 84 80 78 75 72 69 69 70 68
124 128 128 130 133 139 138 138 137 134 131 127 124 122 122 123 123 125 127 127 127 129 130 131 132 134 136 139 139 140 139 135 129 125 123 124 122 121 122 120 120 120 118 118 122 124 121 120 118 117 115 114 115 113 111 109 111 113 118 113 98 102 114 110 105 90 67 50 43 43 37 35 40 59 84 94 85 86 83 79 76 74 74 73 71
124 126 128 130 136 138 138 138 135 134 132 128 127 127 126 126 127 129 129 129 129 130 131 133 134 133 133 136 134 131 127 128 123 118 119 121 122 121 117 117 116 115 113 117 122 122 120 120 119 118 118 116 112 110 106 107 108 105 101 107 108 115 120 118 110 86 69 58 67 57 52 44 44 60 97 93 92 85 81 79 73 75 76 75 74
125 128 132 135 136 138 140 137 136 136 133 132 130 130 130 130 131 131 131 132 132 133 133 135 133 133 132 127 124 125 126 123 115 105 99 105 115 114 113 118 118 117 118 121 121 124 121 121 119 118 117 111 109 105 106 103 97 99 112 127 133 133 129 124 109 91 80 77 78 74 68 51 18 44 94 98 94 91 99 94 86 83 80 78 76
126 129 133 132 137 138 139 136 138 138 137 136 134 132 132 132 134 134 135 135 135 134 134 134 134 133 133 126 120 121 117 112 107 106 107 109 109 113 120 122 121 123 124 123 121 122 124 120 114 110 108 109 107 105 103 98 91 101 111 122 129 134 129 119 104 95 90 87 75 59 46 42 34 358 103 96 93 99 90 83 80 81 81 78 74
130 133 133 137 137 139 139 139 139 143 141 137 135 135 135 135 135 136 136 136 135 134 133 134 134 133 133 130 125 122 121 118 115 116 115 113 113 116 122 123 125 124 123 120 117 117 122 116 109 107 109 106 102 98 97 92 90 103 112 113 120 124 122 115 104 99 101 98 88 75 66 67 73 80 87 84 86 85 87 89 82 80 80 78 77
133 134 135 135 135 143 141 141 144 146 142 139 139 137 137 136 135 137 137 135 132 133 135 134 136 140 141 137 133 132 129 129 130 126 122 119 118 121 123 127 129 127 122 117 113 116 120 118 113 108 102 98 97 97 94 89 91 108 118 115 116 117 118 113 104 104 102 99 92 86 74 44 45 98 100 98 95 99 97 83 81 84 84 83 82
137 135 138 134 140 143 142 143 146 145 142 141 139 137 137 137 138 136 133 131 133 130 127 128 127 130 138 137 136 132 129 131 133 130 127 125 126 127 129 129 128 128 124 119 116 118 120 115 107 99 93 91 93 94 91 87 92 111 121 120 119 120 119 111 108 107 105 105 101 91 91 89 84 91 90 98 96 89 83 83 84 82 80 81 85
137 137 131 132 137 142 144 146 146 142 139 136 135 135 134 132 129 127 129 130 128 127 125 123 127 135 136 137 128 129 130 132 133 131 129 127 128 129 127 128 133 127 121 117 116 115 112 105 93 87 84 82 82 82 82 84 94 109 125 125 126 125 120 109 109 105 106 104 96 105 100 104 120 115 110 98 100 99 91 86 84 86 88 89 88
131 130 129 131 134 140 143 147 144 140 136 136 136 133 129 125 123 123 124 127 125 129 129 130 128 129 132 131 129 136 136 138 135 133 129 131 134 134 131 131 131 127 120 117 114 109 105 97 92 85 81 79 74 72 73 77 83 105 129 128 129 127 124 117 111 101 98 103 117 108 105 109 107 103 103 107 102 96 94 93 97 92 87 86 88
130 127 127 126 129 132 139 138 142 139 138 135 132 126 123 123 122 121 122 125 129 131 133 131 128 129 131 131 135 138 136 135 131 129 127 131 133 132 128 128 129 125 120 115 110 106 102 98 92 87 80 78 74 68 67 75 83 98 136 135 132 131 128 123 116 110 114 126 100 91 107 103 109 112 115 112 109 104 102 100 96 94 88 84 81
122 123 125 124 127 132 134 136 140 136 133 133 125 121 123 122 124 125 128 130 132 132 132 129 130 132 131 133 137 139 136 134 130 123 123 123 130 131 125 124 123 122 122 115 106 99 95 92 87 82 79 75 73 66 61 67 82 94 138 142 137 134 132 125 117 120 132 123 90 116 118 128 133 133 124 118 116 114 109 104 98 93 94 93 96
116 120 121 128 131 131 132 128 124 123 122 115 121 131 127 125 125 127 129 128 125 130 130 131 133 134 134 133 134 135 131 127 123 115 115 121 128 126 119 118 119 120 119 112 103 93 86 81 77 75 74 75 72 65 53 60 72 96 137 150 140 137 135 125 123 131 121 110 127 110 123 131 129 123 123 124 121 111 107 108 108 104 100 95 88
118 120 126 133 136 134 130 123 120 123 120 120 126 131 134 130 127 126 129 124 123 123 130 133 133 133 132 130 129 129 127 125 116 114 129 119 118 107 113 117 117 115 114 114 109 94 77 72 69 67 67 68 70 68 56 57 70 92 122 156 147 137 127 130 128 121 125 139 132 136 141 139 141 136 127 124 124 118 112 113 114 107 102 102 97
126 128 141 145 142 141 137 130 127 126 125 127 123 125 136 133 132 130 137 135 127 135 133 130 125 122 119 116 105 110 111 114 117 123 119 108 109 111 111 112 108 107 107 108 108 83 76 71 67 61 56 56 65 74 74 65 74 91 120 157 148 121 133 131 127 124 134 141 138 175 149 147 135 127 124 128 126 121 126 125 116 115 107 99 95
141 147 153 150 148 149 145 138 131 129 129 128 128 126 129 132 126 128 132 134 135 131 122 123 122 112 117 109 108 111 107 114 117 111 108 109 108 103 108 107 109 107 106 99 88 76 74 72 65 58 54 56 68 80 77 75 95 113 126 148 120 133 130 128 126 131 132 135 146 169 150 145 138 132 128 122 119 118 116 111 112 111 106 102 102
152 152 153 152 152 149 146 142 136 129 128 128 128 124 118 111 112 117 130 130 121 108 100 111 98 109 105 107 106 107 107 99 100 110 110 112 107 106 106 107 107 108 103 94 88 81 75 73 67 62 57 55 63 86 110 116 90 105 121 124 133 132 127 120 119 126 129 141 127 160 149 146 142 138 130 128 128 128 121 115 108 102 104 109 106
149 151 145 136 150 152 146 143 138 135 136 136 126 122 121 116 118 115 113 105 98 99 106 109 107 111 111 110 108 103 103 114 126 117 107 93 102 103 106 106 104 98 89 73 74 76 69 61 64 66 57 48 55 75 114 131 112 103 119 132 132 135 128 130 127 121 127 143 206 158 150 151 147 135 135 134 134 125 115 113 110 106 101 100 107
144 112 118 146 153 159 151 147 150 148 145 141 136 132 128 125 119 117 114 110 109 109 107 108 117 117 117 114 108 105 99 91 86 86 97 98 91 84 84 93 82 64 66 62 64 61 48 49 53 59 61 56 56 58 102 123 108 107 122 132 129 126 118 117 112 115 128 126 181 158 157 156 156 150 144 134 131 126 120 116 114 109 99 102 107
114 127 145 157 167 171 167 156 152 157 154 148 144 139 136 129 116 120 117 116 122 119 120 124 126 123 124 118 107 105 98 97 97 101 94 103 95 94 95 94 92 98 95 93 38 44 30 59 68 63 52 60 61 59 63 113 126 115 123 131 129 122 114 108 106 112 129 137 187 164 166 176 161 144 133 121 119 114 115 113 113 109 107 102 100
138 155 165 174 175 177 169 156 159 156 153 138 131 135 135 127 115 125 129 129 131 127 129 131 130 130 126 125 120 113 111 114 119 117 117 115 100 98 106 100 116 120 123 114 72 41 54 71 68 64 64 62 59 54 67 75 111 126 123 131 129 119 116 120 120 129 139 156 200 166 176 193 145 131 126 126 119 114 114 113 107 106 106 105 102
166 163 193 179 174 179 176 161 155 152 142 136 136 133 131 127 131 134 127 138 130 130 131 137 130 130 132 128 119 126 135 133 131 121 122 104 113 121 119 116 107 100 74 250 84 302 199 78 76 69 63 58 69 55 64 77 87 119 131 129 125 122 127 130 133 142 149 165 187 167 183 183 121 123 131 123 116 114 112 116 115 110 107 100 98
162 186 189 187 187 176 174 170 152 149 140 140 138 128 123 129 130 127 133 140 126 130 133 129 123 115 135 126 131 131 129 131 127 126 121 119 122 115 113 113 104 100 93 58 112 192 98 83 75 70 68 69 65 61 68 74 83 90 119 132 131 132 136 130 134 145 155 162 159 171 181 154 131 140 134 122 114 113 113 116 117 116 111 108 108
202 192 189 198 191 179 179 172 164 154 144 140 129 126 135 136 129 133 138 136 127 126 123 119 108 127 138 129 129 133 139 136 126 126 128 118 114 107 111 118 115 113 94 94 74 114 103 81 76 68 58 58 67 55 74 87 83 89 111 129 139 139 138 142 145 150 149 153 165 171 171 128 149 138 134 122 120 131 129 125 125 119 115 115 110
200 214 202 198 193 182 177 172 167 161 145 149 143 135 137 127 132 139 124 130 130 125 112 113 126 142 157 125 126 134 132 126 122 127 118 117 120 125 119 112 99 79 101 103 72 76 73 80 75 67 60 49 56 39 54 89 83 75 86 113 126 129 137 139 142 145 151 157 153 163 147 112 112 129 117 99 93 134 138 135 131 128 129 126 119
190 205 208 194 182 182 170 164 162 158 156 149 140 134 134 131 134 124 123 130 134 131 123 113 154 145 128 126 130 131 128 119 121 120 116 120 133 128 125 118 109 105 113 114 109 78 73 77 72 62 60 56 51 48 39 69 70 55 60 69 92 103 114 132 140 137 120 113 120 101 81 73 98 122 114 108 102 67 134 139 137 135 136 133 127
186 198 194 170 167 155 152 162 151 145 150 143 134 132 132 133 130 120 128 137 131 134 130 143 153 124 114 118 120 119 118 124 114 115 119 117 121 121 111 109 108 112 117 116 108 79 78 74 67 61 54 48 56 43 41 51 57 48 53 49 58 58 54 68 78 76 80 77 66 67 56 54 55 104 126 128 131 74 131 142 143 141 137 137 129
24 45 102 144 136 135 145 148 145 135 136 124 122 123 122 123 118 120 136 127 130 136 137 125 137 124 117 116 121 122 123 127 128 114 111 112 113 122 114 105 103 109 115 110 92 86 86 80 72 67 58 52 54 31 46 51 50 54 53 55 57 49 51 68 69 79 81 73 55 50 53 104 106 111 135 131 135 96 124 136 144 133 136 145 141
50 74 124 131 130 133 143 139 141 134 137 131 125 121 124 129 129 132 131 129 132 135 134 141 142 136 117 117 128 136 134 134 130 128 121 122 125 125 113 107 106 99 96 92 107 90 85 95 101 90 76 64 59 50 55 60 60 56 52 56 61 61 59 66 71 74 74 69 48 358 206 113 97 96 116 124 126 111 101 133 145 141 146 145 143
115 105 103 117 125 137 137 137 139 136 134 131 122 119 119 121 128 132 130 132 136 138 141 147 137 121 119 111 115 118 121 130 130 129 125 122 128 131 127 120 113 103 99 101 108 112 109 100 89 110 128 84 76 61 65 71 66 63 57 57 60 64 67 63 70 73 77 72 110 230 26 22 347 86 110 95 103 118 112 74 102 150 150 172 157
115 134 115 118 128 143 136 137 137 132 127 115 111 109 115 122 125 128 135 138 140 140 140 136 117 121 117 118 118 120 128 130 125 123 124 123 124 121 127 125 119 122 117 113 111 127 126 116 106 77 104 117 98 92 77 77 75 66 60 58 52 58 61 67 75 92 101 109 201 63 77 42 45 56 75 92 72 63 73 78 78 84 109 102 133
120 139 133 136 138 146 130 130 131 128 128 124 118 118 121 117 114 122 134 133 133 125 133 141 132 128 124 125 123 120 124 127 124 122 117 127 130 132 132 133 129 131 125 116 115 115 112 118 110 98 96 108 114 111 103 90 82 74 66 61 59 58 56 57 75 96 112 123 101 66 73 50 67 56 69 78 95 93 93 82 78 67 64 67 79
126 146 138 127 130 137 126 134 133 128 123 116 113 109 108 103 104 113 113 107 111 106 125 140 133 126 125 131 127 129 136 138 138 137 132 129 124 129 134 140 136 130 125 118 118 118 115 111 118 102 89 91 115 116 111 101 90 82 74 69 69 65 63 67 67 83 88 87 85 79 72 89 55 40 67 76 80 98 102 101 90 83 67 68 75
127 146 154 138 137 133 128 125 126 123 121 115 114 113 113 115 113 109 105 116 120 129 125 136 132 124 132 136 139 143 151 147 142 136 128 127 127 133 134 132 128 129 126 132 140 149 141 122 120 123 118 104 101 114 116 109 91 83 80 70 64 69 65 55 59 58 57 60 71 75 75 46 52 63 57 79 101 73 85 108 108 95 80 73 74
132 147 157 148 150 149 136 129 126 126 126 124 125 123 120 115 111 117 125 124 132 124 127 130 136 139 137 140 144 147 143 135 125 123 120 127 123 126 131 133 126 130 131 160 172 152 141 131 121 123 125 120 113 125 125 115 108 86 80 74 65 59 65 58 54 53 58 64 70 77 73 73 56 50 48 69 54 55 25 33 63 94 83 77 67
152 154 164 157 150 145 137 124 124 125 128 127 123 119 124 132 135 141 134 133 139 142 137 143 147 143 144 146 144 135 130 131 123 119 120 128 133 134 142 151 147 144 144 146 149 135 121 117 127 99 49 123 130 149 165 93 54 126 121 89 73 71 63 55 48 44 47 60 74 80 83 86 91 50 34 57 71 80 71 77 69 73 76 75 69
154 160 158 152 146 143 132 124 123 125 126 126 121 118 116 125 139 140 144 121 78 118 126 138 143 132 135 132 128 124 128 123 129 125 134 141 144 146 157 150 147 138 126 137 138 131 141 145 138 131 123 64 105 168 159 62 127 102 85 96 74 84 33 52 38 32 48 55 76 85 86 81 90 101 114 109 72 79 83 72 73 72 71 73 64
159 158 157 158 149 140 125 118 120 121 124 126 118 115 118 114 92 110 103 113 143 128 98 113 102 109 124 129 120 129 130 134 138 141 141 147 154 157 146 150 156 158 148 143 154 147 155 147 125 127 130 133 149 194 207 157 138 137 121 63 122 107 97 66 54 17 20 50 65 81 78 101 104 103 99 86 90 94 87 84 81 79 73 65 60
163 165 164 156 148 139 122 117 119 125 128 127 124 123 115 101 106 90 90 86 80 102 112 83 111 125 116 125 142 125 132 136 142 148 149 155 150 142 149 150 148 159 149 148 163 168 174 179 161 141 162 155 163 192 226 145 176 93 142 114 66 72 185 125 103 32 5 44 45 72 78 73 79 77 84 81 71 73 80 75 64 51 47 49 57
164 153 156 142 137 132 121 115 120 130 134 134 134 139 143 140 129 120 122 120 132 141 143 151 144 141 152 125 94 117 134 134 149 154 147 143 147 152 148 145 157 165 173 167 154 135 164 178 186 161 167 189 165 141 214 135 167 110 346 72 161 165 150 159 134 102 39 44 52 65 75 83 81 79 77 71 68 62 57 67 63 53 50 51 63
164 170 149 136 129 129 125 128 139 143 143 141 143 143 140 142 145 146 145 150 143 141 89 115 129 111 106 101 101 93 122 136 137 141 143 141 136 145 150 153 153 156 153 140 158 170 173 189 176 166 178 151 137 176 199 182 94 102 59 271 177 117 152 144 127 129 103 20 34 54 59 58 58 65 69 68 74 73 62 64 70 74 65 61 65
147 193 156 135 134 141 141 146 142 138 137 136 150 139 132 140 138 135 136 145 145 147 141 129 111 118 104 103 103 87 76 109 136 130 131 130 126 116 123 120 119 140 142 160 164 155 138 165 184 186 157 168 168 177 195 179 179 160 79 83 78 94 69 87 125 139 120 117 86 64 63 60 56 49 45 53 59 71 78 71 78 76 70 65 50
152 196 159 136 145 157 149 134 131 134 137 153 156 129 139 140 136 126 116 102 108 113 115 109 111 109 103 94 98 99 85 71 90 123 120 119 110 117 112 111 112 105 105 112 121 150 165 164 170 175 183 177 180 164 152 192 185 173 117 71 85 74 73 63 93 81 121 123 91 109 100 71 66 46 40 46 51 55 64 70 78 79 79 70 48
166 163 147 140 152 156 129 122 129 133 146 160 143 136 135 134 126 125 122 116 110 98 98 107 115 116 112 109 107 93 84 72 56 73 96 92 104 108 108 115 119 120 102 117 120 129 163 178 187 190 183 192 165 151 168 181 189 157 151 145 122 119 94 85 72 109 66 39 125 121 108 112 82 30 40 42 49 53 60 72 77 73 70 68 56
182 148 151 149 153 135 125 121 122 118 138 152 149 142 145 133 126 127 132 133 133 128 122 121 127 118 115 108 103 91 68 72 72 70 81 101 98 99 111 112 106 101 108 115 127 140 153 148 139 145 174 188 169 134 132 170 169 156 155 157 159 163 161 156 157 149 136 130 110 99 100 92 98 86 28 35 58 66 77 66 72 73 77 77 82